VK6ADF Weather Reports


Display with metric or nautical units.
time (UTC)temp
F
wind
direction
speed
MPH
gust
MPH
rain 1hr
in
rain 24hr
in
rain mn
in
humidity
%
barometer
mb
20260509033028 78 201 5.0 12.0 0.00 0.00 0.00 31 1023.3
20260509031534 76 311 7.0 14.0 0.00 0.00 0.00 32 1023.7
20260509030029 75 316 7.0 13.0 0.00 0.00 0.00 33 1023.9
20260509024530 74 312 7.0 14.0 0.00 0.00 0.00 34 1024.1
20260509023028 73 306 5.0 12.0 0.00 0.00 0.00 35 1024.3
20260509021528 72 340 7.0 14.0 0.00 0.00 0.00 36 1024.4
20260509020046 71 300 7.0 16.0 0.00 0.00 0.00 37 1024.7
20260509014542 70 307 8.0 18.0 0.00 0.00 0.00 38 1024.7
20260509013036 69 321 9.0 14.0 0.00 0.00 0.00 39 1024.8
20260509011530 68 289 5.0 12.0 0.00 0.00 0.00 41 1025.0
20260509010027 67 347 6.0 15.0 0.00 0.00 0.00 42 1025.1
20260509004528 65 333 8.0 18.0 0.00 0.00 0.00 44 1025.1
20260509003039 64 324 7.0 13.0 0.00 0.00 0.00 47 1025.2
20260509001528 62 355 7.0 16.0 0.00 0.00 0.00 48 1025.2
20260509000030 61 340 7.0 13.0 0.00 0.00 0.00 51 1025.0
20260508234549 59 336 5.0 10.0 0.00 0.00 0.00 52 1025.1
20260508233031 58 335 5.0 10.0 0.00 0.00 0.00 53 1025.0
20260508231530 58 342 5.0 9.0 0.00 0.00 0.00 54 1024.7
20260508230409 58 327 4.0 12.0 0.00 0.00 0.00 53 1024.6
20260508224558 58 327 5.0 10.0 0.00 0.00 0.00 53 1024.5
20260508223036 59 336 6.0 10.0 0.00 0.00 0.00 53 1024.4
20260508221528 58 322 4.0 9.0 0.00 0.00 0.00 54 1024.2
20260508220027 58 46 4.0 10.0 0.00 0.00 0.00 54 1024.0
20260508214528 58 351 6.0 10.0 0.00 0.00 0.00 54 1023.8
20260508213028 58 320 4.0 8.0 0.00 0.00 0.00 54 1023.9
20260508211528 58 340 5.0 9.0 0.00 0.00 0.00 54 1023.7
20260508210030 58 51 4.0 8.0 0.00 0.00 0.00 54 1023.6
20260508204529 58 331 5.0 9.0 0.00 0.00 0.00 54 1023.5
20260508203029 59 323 5.0 9.0 0.00 0.00 0.00 54 1023.7
20260508201530 59 331 5.0 10.0 0.00 0.00 0.00 54 1023.5
20260508200033 59 350 5.0 10.0 0.00 0.00 0.00 55 1023.6
20260508194531 59 302 4.0 8.0 0.00 0.00 0.00 55 1023.6
20260508193027 59 320 4.0 8.0 0.00 0.00 0.00 55 1023.5
20260508191535 60 318 4.0 8.0 0.00 0.00 0.00 54 1023.5
20260508190034 60 306 4.0 8.0 0.00 0.00 0.00 54 1023.5
20260508184530 60 332 3.0 5.0 0.00 0.00 0.00 55 1023.6
20260508183034 60 250 3.0 6.0 0.00 0.00 0.00 54 1023.7
20260508181535 61 263 3.0 5.0 0.00 0.00 0.00 53 1023.7
20260508180028 61 319 3.0 9.0 0.00 0.00 0.00 53 1023.7
20260508174533 61 329 3.0 9.0 0.00 0.00 0.00 53 1023.7
20260508173040 61 321 3.0 8.0 0.00 0.00 0.00 53 1023.6
20260508171530 62 216 3.0 9.0 0.00 0.00 0.00 52 1023.8
20260508170030 62 246 3.0 6.0 0.00 0.00 0.00 52 1023.8
20260508164528 62 252 3.0 9.0 0.00 0.00 0.00 52 1023.9
20260508163029 62 311 4.0 8.0 0.00 0.00 0.00 52 1023.7
20260508161529 62 171 3.0 6.0 0.00 0.00 0.00 53 1023.8
20260508160033 61 315 3.0 5.0 0.00 0.00 0.00 53 1023.9
20260508154528 61 238 3.0 6.0 0.00 0.00 0.00 53 1023.8
20260508153028 60 308 2.0 4.0 0.00 0.00 0.00 52 1023.8
20260508151531 60 194 2.0 3.0 0.00 0.00 0.00 52 1023.9
20260508150034 60 194 1.0 4.0 0.00 0.00 0.00 51 1024.0
20260508144531 61 176 1.0 6.0 0.00 0.00 0.00 50 1024.0
20260508143030 61 288 3.0 8.0 0.00 0.00 0.00 50 1024.1
20260508141554 61 184 2.0 4.0 0.00 0.00 0.00 49 1024.4
20260508140029 61 181 1.0 2.0 0.00 0.00 0.00 49 1024.2
20260508134548 61 0 0.0 2.0 0.00 0.00 0.00 49 1024.2
20260508133030 61 181 0.0 1.0 0.00 0.00 0.00 49 1024.0
20260508131535 62 181 0.0 1.0 0.00 0.00 0.00 47 1023.9
20260508130033 63 182 1.0 2.0 0.00 0.00 0.00 46 1023.7
20260508124531 63 0 0.0 1.0 0.00 0.00 0.00 46 1023.7
20260508123302 64 181 1.0 2.0 0.00 0.00 0.00 45 1023.7
20260508120300 65 181 0.0 2.0 0.00 0.00 0.00 44 1023.4
20260508113154 67 181 0.0 2.0 0.00 0.00 0.00 41 1023.2
20260508111936 68 0 1.0 2.0 0.00 0.00 0.00 40 1022.9
20260508110427 69 181 0.0 2.0 0.00 0.00 0.00 39 1023.0
20260508104950 70 181 0.0 2.0 0.00 0.00 0.00 38 1023.1
20260508094528 74 332 4.0 6.0 0.00 0.00 0.00 34 1022.4
20260508093329 75 331 4.0 10.0 0.00 0.00 0.00 33 1022.3
20260508091536 76 329 5.0 9.0 0.00 0.00 0.00 32 1022.2
20260508090039 77 322 5.0 11.0 0.00 0.00 0.00 32 1022.1
20260508084611 77 328 5.0 10.0 0.00 0.00 0.00 32 1022.2
20260508084539 77 328 5.0 10.0 0.00 0.00 0.00 32 1022.2
20260508083340 78 169 4.0 11.0 0.00 0.00 0.00 31 1022.1
20260508081531 78 334 4.0 11.0 0.00 0.00 0.00 31 1022.2
20260508080255 78 67 3.0 11.0 0.00 0.00 0.00 31 1022.0
20260508074531 79 63 5.0 12.0 0.00 0.00 0.00 31 1021.9
20260508073028 79 329 3.0 12.0 0.00 0.00 0.00 30 1022.0
20260508071531 80 352 5.0 11.0 0.00 0.00 0.00 30 1022.0
20260508070030 81 277 5.0 10.0 0.00 0.00 0.00 30 1022.1
20260508063411 82 46 6.0 11.0 0.00 0.00 0.00 28 1022.2
20260508060028 82 28 5.0 12.0 0.00 0.00 0.00 30 1022.1
20260508054804 82 226 2.0 9.0 0.00 0.00 0.00 30 1022.2
20260508053105 82 326 3.0 11.0 0.00 0.00 0.00 31 1022.4
20260508051819 81 192 3.0 9.0 0.00 0.00 0.00 32 1022.6
20260508050031 81 206 5.0 11.0 0.00 0.00 0.00 33 1022.8
20260508044849 80 286 6.0 13.0 0.00 0.00 0.00 34 1023.1
20260508044754 80 286 6.0 13.0 0.00 0.00 0.00 34 1023.1
20260508044724 80 286 6.0 13.0 0.00 0.00 0.00 34 1023.1
20260508044652 80 286 6.0 13.0 0.00 0.00 0.00 34 1023.1
20260508044535 80 286 6.0 13.0 0.00 0.00 0.00 34 1023.1
20260508043029 79 329 5.0 11.0 0.00 0.00 0.00 34 1023.2
20260508041529 79 336 7.0 11.0 0.00 0.00 0.00 35 1023.5
20260508040029 79 323 4.0 11.0 0.00 0.00 0.00 36 1023.9
20260508034528 78 343 5.0 13.0 0.00 0.00 0.00 37 1024.3